Regional Weather Roundup
Issued by NWS

Home | Current Version | Previous Version | Text Only | Print | Product List | Glossary Off
Versions: 1 2 3 4 5 6 7 8 9 10 11 12 13 14 15 16 17 18 19 20 21 22 23 24 25 26 27 28 29 30 31 32 33 34 35 36 37 38 39 40 41 42 43 44 45 46 47 48 49 50

000
ASUS45 KCYS 220210
RWRWY

WYOMING REGIONAL WEATHER ROUNDUP
NATIONAL WEATHER SERVICE CHEYENNE WY
800 PM MDT TUE OCT 21 2014

NOTE:  "FAIR" INDICATES FEW OR NO CLOUDS BELOW 12,000 FEET
WITH NO SIGNIFICANT WEATHER AND/OR OBSTRUCTIONS TO VISIBILITY.

WYZ001-220300-
YELLOWSTONE NATIONAL PARK

CITY           SKY/WX    TMP DP  RH WIND       PRES   REMARKS
LK YELLOWSTONE   N/A     33  29  85 W6        30.07S WCI  28
W YELLOWSTONE  NOT AVBL

$$
WYZ002>013-054>058-071-098>099-220300-
NORTHERN WYOMING

CITY           SKY/WX    TMP DP  RH WIND       PRES   REMARKS
JACKSON        CLEAR     39  28  65 S10       30.07R WCI  32
CODY           PTCLDY   N/A N/A N/A W13G26    29.94R
GREYBULL       CLOUDY    60  24  25 NW22G30   29.86R
WORLAND        LGT RAIN  60  20  21 W9        29.85R
SHERIDAN       MOCLDY    65  35  33 NW3       29.75R
BUFFALO        CLOUDY    65  29  25 SW28G35   29.79S
GILLETTE       CLOUDY    65  33  30 SW13      29.78R
HULETT         FAIR      68  36  30 S14       29.76
NEWCASTLE      FAIR      61  34  36 SE9       29.81

$$
WYZ014>020-022>026-101>103-220300-
CENTRAL WYOMING

CITY           SKY/WX    TMP DP  RH WIND       PRES   REMARKS
BIG PINEY      PTCLDY    36  25  64 N8        30.08R WCI  30
PINEDALE       PTCLDY    34  28  80 W7        30.08R WCI  28
DUBOIS         FAIR      36  25  64 NW8       30.04R WCI  29
LANDER         PTCLDY    52  28  39 SW7       29.91R
RIVERTON       PTCLDY    49  30  48 NW17      29.93R
CASPER         MOCLDY    57  34  41 SW13      29.91S
DOUGLAS        MOCLDY    64  39  39 W14       29.92R

$$
WYZ021-027>030-104>119-220300-
SOUTHERN WYOMING

CITY           SKY/WX    TMP DP  RH WIND       PRES   REMARKS
EVANSTON       CLOUDY    44  22  41 W6        30.10R
KEMMERER       PTCLDY    37  28  70 NW8       30.09R WCI  31
FORT BRIDGER   MOCLDY    46  28  50 W12       30.12R
ROCK SPRINGS   MOCLDY    47  32  56 W15       30.08R
DIXON          CLOUDY    49  39  68 NW16G24   30.09R
RAWLINS        MOCLDY    45  40  82 CALM      30.03S
SARATOGA       CLOUDY    52  37  58 W5        30.06R
LARAMIE        CLOUDY    50  37  61 W10       30.06R
CHEYENNE       CLOUDY    58  36  43 W7        29.98R
TORRINGTON     CLOUDY    61  46  57 NE3       29.87R
PINE BLUFFS    FAIR      52  37  58 NW5       29.94R

$$



USA.gov is the U.S. government's official web portal to all federal, state and local government web resources and services.